Location: Unspecified
(0.0000°N, 0.0000°E)
Time: 22:24:26
(UTC+01:00)

JASON 3 - Pass Details

Date: 10 October 2020
Orbit: 1332 x 1343 km, 66.0° (Epoch: 27 October)

Event Time Altitude Azimuth Distance (km) Brightness Sun altitude
Rises 22:42:02 0° 296° (WNW) 4,345 ? -43.4°
Reaches altitude 10° 22:47:43 10° 265° (W) 3,373 ? -44.8°
Maximum altitude 22:49:58 11° 248° (WSW) 3,274 ? -45.4°
Drops below altitude 10° 22:52:14 10° 232° (SW) 3,373 ? -45.9°
Sets 22:58:00 0° 200° (SSW) 4,346 ? -47.3°
